Location: Ertl Road
(44.1464°N, 88.2943°W)
Time: 10:24:54
(UTC-05:00)

ISS - Visible Passes

Search period start: 25 May 2020 00:00
Search period end: 04 June 2020 00:00
Orbit: 417 x 420 km, 51.6° (Epoch: 26 May)

Date Brightness Start Highest point End Pass type
(mag) Time Alt. Az. Time Alt. Az. Time Alt. Az.
25 May -1.5 21:32:39 10° NW 21:35:24 23° N 21:38:11 10° ENE visible
25 May -3.2 23:09:25 10° NW 23:12:43 51° NNE 23:13:01 49° NE visible
26 May -2.5 22:21:40 10° NW 22:24:50 37° NNE 22:26:46 19° E visible
26 May -1.5 23:58:28 10° WNW 23:59:41 20° W 23:59:41 20° W visible
27 May -2.0 21:33:53 10° NW 21:36:54 29° NNE 21:39:55 10° E visible
27 May -3.4 23:10:34 10° WNW 23:13:28 58° W 23:13:28 58° W visible
28 May -3.7 22:22:44 10° WNW 22:26:07 76° NNE 22:27:16 38° ESE visible
29 May -3.1 21:34:56 10° NW 21:38:14 50° NNE 21:41:06 13° E visible
29 May -2.0 23:12:00 10° W 23:14:01 23° WSW 23:14:01 23° WSW visible
30 May -3.1 22:23:56 10° WNW 22:27:09 42° SW 22:27:53 36° S visible
31 May -3.7 21:35:59 10° WNW 21:39:21 70° SW 21:41:47 17° SE visible
01 Jun -1.7 22:25:44 10° W 22:27:56 16° SW 22:28:38 15° SSW visible
02 Jun -2.2 21:37:20 10° WNW 21:40:13 26° SW 21:42:37 13° SSE visible
